Regional Weather Roundup
Issued by NWS

Home | Current Version | Previous Version | Graphics & Text | Print | Product List | Glossary Off
Versions: 1 2 3 4 5 6 7 8 9 10 11 12 13 14 15 16 17 18 19 20 21 22 23 24 25 26 27 28 29 30 31 32 33 34 35 36 37 38 39 40 41 42 43 44 45 46 47 48 49 50

527
ASUS45 KBOU 130007
RWRCO

WEATHER ROUNDUP FOR COLORADO
NATIONAL WEATHER SERVICE DENVER/BOULDER CO
500 PM MST FRI FEB 12 2016

NOTE: "FAIR" INDICATES FEW OR NO CLOUDS BELOW 12000 FEET WITH NO
SIGNIFICANT WEATHER AND/OR OBSTRUCTIONS TO VISIBILITY.

COZ001>005-013-030-031-130100-
...NORTHWEST COLORADO...

CITY           SKY/WX    TMP DP  RH WIND       PRES   REMARKS
CRAIG          FAIR      28  22  78 SW5       30.33S WCI  23
HAYDEN         FAIR      36  21  55 E3        30.33S
MEEKER         FAIR      41  24  51 N3        30.31S
MOUNT WERNER   NOT AVBL
STEAMBOAT SPGS FAIR      33  22  63 CALM      30.34S
WALDEN         FAIR      41  23  48 S9        30.34S
$$

COZ006>008-011-130100-
...WEST CENTRAL VALLEYS...

CITY           SKY/WX    TMP DP  RH WIND       PRES   REMARKS
GRAND JUNCTION FAIR      43  32  65 NW5       30.33S
MONTROSE       FAIR      50  28  42 N5        30.34S
EAGLE          CLEAR     48  21  34 CALM      30.35S
RIFLE          FAIR      45  21  38 CALM      30.33F
DELTA          FAIR      54  30  40 SW7       30.33S
NUCLA          FAIR      55  21  26 CALM      30.37S
$$

COZ017>023-064>068-130100-
...SOUTHWEST COLORADO...

CITY           SKY/WX    TMP DP  RH WIND       PRES   REMARKS
DURANGO        FAIR      46  24  42 E5        30.35S
CORTEZ         FAIR      55  24  30 E3        30.33F
PAGOSA SPRINGS FAIR      54  18  24 CALM      30.38S
TELLURIDE      FAIR      48  18  30 W9        30.45R
WOLF CREEK PAS FAIR      36  16  44 SW9       30.58R
$$

COZ009-010-012-014-032>034-037-058>063-130100-
...CENTRAL COLORADO...

CITY           SKY/WX    TMP DP  RH WIND       PRES   REMARKS
ASPEN          FAIR      46  18  32 NW3       30.36S
BUENA VISTA    FAIR      51  26  36 CALM      30.33R
COPPER MTN     FAIR      37  19  48 W13G24    30.50R
BERTHOUD PASS  FAIR      28  18  64 NW23G31   30.48R WCI  14
COTTONWOOD PAS FAIR      50  14  23 SW13G22   30.41S
GUNNISON       FAIR      21  12  68 NE6       30.48S WCI  14
KREMMLING      FAIR      25  14  63 CALM      30.39S
LEADVILLE      FAIR      43  18  36 N10       30.41S
MONARCH PASS   FAIR      34  18  51 SW22      30.62S WCI  22
SALIDA         NOT AVBL
SUNLIGHT       FAIR      39  25  56 CALM      30.50S
WILKERSON PASS FAIR      39  18  41 SW6       30.49S
$$

COZ069>075-130100-
...SAN LUIS VALLEY/SANGRE DE CRISTO MOUNTAINS...

CITY           SKY/WX    TMP DP  RH WIND       PRES   REMARKS
ALAMOSA        FAIR      53  19  26 SW5       30.35F
LA VETA PASS   FAIR      45  19  36 S7        30.45S
SAGUACHE       FAIR      48  18  29 S5        30.39S
$$

COZ035-036-038>040-130100-
...NORTHERN COLORADO FRONT RANGE...

CITY           SKY/WX    TMP DP  RH WIND       PRES   REMARKS
DENVER INTL AP FAIR      45  32  60 E6        30.23S
DMNS CITY PARK   N/A     50  31  48 NE14      30.23S
AURORA         PTCLDY    48  36  62 E6        30.23F
FRONT RANGE AP PTCLDY    45  32  61 E3        30.24S
ERIE MUNI ARPT FAIR      47  32  55 N6        30.23F
BOULDER MUN AP FAIR      46  32  57 NE3       30.24S
CENTENNIAL     FAIR      53  32  44 N7        30.23S
BROOMFIELD     PTCLDY    50  28  43 W5        30.24S
FORT COLLINS   FAIR      45  30  57 SE6       30.26S
LONGMONT       FAIR      50  32  50 E3        30.26S
$$

COZ041-046-047-076>085-087-088-130100-
...PIKES PEAK/PALMER DIVIDE AND SOUTHERN FOOTHILLS...

CITY           SKY/WX    TMP DP  RH WIND       PRES   REMARKS
COLO. SPRINGS  FAIR      53  27  36 S6        30.27R
A. F. ACADEMY  CLEAR     50  29  43 S9        30.26S
SCHRIEVER AFB  FAIR      48  30  49 SE6       30.27R
ELLICOTT       FAIR     N/A N/A N/A SE8       30.26R
FALCON         FAIR      47  29  50 S7        30.29S
FORT CARSON    FAIR      55  31  40 S3        30.24S
LIMON          FAIR      47  32  56 SE9       30.24S
MONUMENT HILL  FAIR      45  28  53 S10       30.29S
TRINIDAD       FAIR      62  20  19 S12       30.23F
$$

COZ042>045-048>051-090-091-130100-
...NORTHEAST COLORADO...

CITY           SKY/WX    TMP DP  RH WIND       PRES   REMARKS
GREELEY ARPT   FAIR      43  34  70 SE10      30.26R
AKRON          FAIR      35  32  88 E16       30.26S WCI  25
BURLINGTON     CLOUDY    33  30  88 E17       30.30S WCI  22
WRAY           CLOUDY    34  32  92 E12       30.34S WCI  25
STERLING       CLOUDY    36  32  87 SE10      30.29R
HOLYOKE        CLOUDY    34  32  93 SE9       30.34S WCI  26
FORT MORGAN    FAIR      39  31  73 E14       30.26S
$$

COZ086-089-092>099-130100-
...SOUTHEAST COLORADO...

CITY           SKY/WX    TMP DP  RH WIND       PRES   REMARKS
PUEBLO         FAIR      63  27  25 E12       30.19S
LA JUNTA       FAIR      64  31  28 NE5       30.18F
LAMAR          FAIR      60  28  29 SE16G23   30.21S
SPRINGFIELD      N/A     56  25  30 S20       30.26R
$$




USA.gov is the U.S. government's official web portal to all federal, state and local government web resources and services.